Weather Roundup
Issued by NWS

Home | Current Version | Previous Version | Graphics & Text | Print | Product List | Glossary Off
Versions: 1 2 3 4 5 6 7 8 9 10 11 12 13 14 15 16 17 18 19 20 21 22 23 24 25 26 27 28 29 30 31 32 33 34 35 36 37 38 39 40 41 42 43 44 45 46 47 48 49 50

000
NZUS93 KARX 301410
HRRWXR

CURRENT HOURLY OBSERVATIONS ACROSS
MUCH OF THE UPPER MISSISSIPPI VALLEY
NATIONAL WEATHER SERVICE LA CROSSE WI
900 AM CDT SAT MAY 30 2015


...SOUTHEAST MINNESOTA...


CITY           SKY/WX    TMP DP  RH WIND       PRES   REMARKS
ROCHESTER      CLOUDY    51  46  83 N15G26    30.14R
ROCHESTER/MAYO CLOUDY    51  47  89 N12G17    30.14R
WINONA         CLOUDY    54  48  82 N5        30.13R
AUSTIN         CLOUDY    50  45  81 N13G20    30.13R
ALBERT LEA     CLOUDY    50  45  81 N18       30.15R
DODGE CENTER   CLOUDY    50  45  81 N17       30.15R
PRESTON        CLOUDY    49  46  87 N16G24    30.12R
OWATONNA       CLOUDY    50  41  71 N15G25    30.18R
FARIBAULT      PTSUNNY   50  43  76 N15       30.19R
$$

...ELSEWHERE IN MINNESOTA...


CITY           SKY/WX    TMP DP  RH WIND       PRES   REMARKS
MINNEAPOLIS    PTSUNNY   50  39  66 N16G25    30.21R
INTNL FALLS    PTSUNNY   38  25  59 NE9       30.35S WCI  31
DULUTH         MOSUNNY   45  34  65 N15       30.25R
RED WING       PTSUNNY   52  43  71 NE9       30.16R
REDWOOD FALLS  MOSUNNY   50  40  68 N15G25    30.25R
MANKATO        MOSUNNY   52  39  62 N20       30.20R
WORTHINGTON    PTSUNNY   46  37  71 N16G28    30.23S
FAIRMONT       PTSUNNY   48  39  71 N21G26    30.19R
$$

...SOUTHWEST WISCONSIN...


CITY           SKY/WX    TMP DP  RH WIND       PRES   REMARKS
LA CROSSE      CLOUDY    57  51  80 N9        30.10R
PRAIRIE DU CHI CLOUDY    59  54  83 NW7       30.04R
BOSCOBEL       LGT RAIN  60  57  89 N8        30.03R FOG
LONE ROCK      LGT RAIN  60  56  86 N6        30.04R FOG
PLATTEVILLE    CLOUDY    62  60  94 N16       29.99R
FORT MC COY    CLOUDY    54  52  95 N5        30.10R FOG
CAMP DOUGLAS   DRIZZLE   54  54 100 NE9       30.08R
VIROQUA        CLOUDY    54  54 100 N17       30.06R
WIS DELLS      RAIN      54  52  94 NE12      30.05R
$$

...ELSEWHERE IN WISCONSIN...


CITY           SKY/WX    TMP DP  RH WIND       PRES   REMARKS
MILWAUKEE      LGT RAIN  51  48  89 NE16G22   30.03R
MADISON        LGT RAIN  57  55  93 NE17G32   30.00R FOG
GREEN BAY      LGT RAIN  52  49  89 N15       30.09R
EAU CLAIRE     CLOUDY    52  44  74 N13G20    30.14R
BLACK RVR FLS  CLOUDY    55  53  94 N9G16     30.11R
MEDFORD        CLOUDY    51  47  87 N15       30.12S
WAUSAU         CLOUDY    54  48  80 VRB6G17   30.09R
WIS RAPIDS     CLOUDY    56  49  77 NE10      30.10R
MARSHFIELD     CLOUDY    54  49  83 N9        30.10R
RICE LAKE      CLOUDY    49  42  76 N16       30.20R
$$

...NORTHEAST IOWA...


CITY           SKY/WX    TMP DP  RH WIND       PRES   REMARKS
DECORAH        CLOUDY    54  54 100 N13       30.06R
MASON CITY     CLOUDY    53  47  79 N21G28    30.14R
CHARLES CITY   CLOUDY    54  52  94 N20G25    30.09R
OELWEIN        CLOUDY    55  55 100 N15       30.06R
$$

...ELSEWHERE IN IOWA...


CITY           SKY/WX    TMP DP  RH WIND       PRES   REMARKS
DES MOINES     CLOUDY    57  53  86 N14       30.07R
IOWA CITY      CLOUDY    65  62  90 N10       29.99R
FORT DODGE     CLOUDY    52  45  76 N12G20    30.15R
$$

...NORTHERN ILLINOIS...


CITY           SKY/WX    TMP DP  RH WIND       PRES   REMARKS
CHICAGO-OHARE  CLOUDY    67  64  90 SW3       29.98R
CHICAGO-MIDWAY LGT RAIN  70  66  87 W5        29.99R
MOLINE         LGT RAIN  67  64  90 VRB3      29.97R FOG
ROCKFORD       LGT RAIN  67  64  90 SW6       29.99R
PEORIA         LGT RAIN  69  65  86 CALM      29.98S
$$

NOTE: "FAIR" INDICATES FEW OR NO CLOUDS BELOW 12,000 FEET WITH NO
SIGNIFICANT WEATHER AND/OR OBSTRUCTIONS TO VISIBILITY. WIND
SPEEDS ARE IN MILES-PER-HOUR.



USA.gov is the U.S. government's official web portal to all federal, state and local government web resources and services.